DW0000 Weather Reports


Display with metric or nautical units.
time (UTC)temp
F
wind
direction
speed
MPH
gust
MPH
rain 1hr
in
rain 24hr
in
rain mn
in
humidity
%
barometer
mb
20260507220504 65 10 16.0 22.0 0.00 0.00 0.00 87 1015.1
20260507220007 65 14 16.0 28.0 0.00 0.00 0.00 87 1015.3
20260507215005 65 10 19.0 28.0 0.00 0.00 0.00 86 1015.5
20260507214504 65 13 17.0 29.0 0.00 0.00 0.00 86 1015.6
20260507213005 65 19 13.0 26.0 0.00 0.00 0.00 90 1015.3
20260507212005 64 14 14.0 21.0 0.00 0.00 0.00 92 1015.4
20260507211505 64 31 5.0 17.0 0.00 0.00 0.00 92 1015.3
20260507205506 63 22 8.0 17.0 0.00 0.00 0.00 92 1015.9
20260507205005 63 12 9.0 21.0 0.00 0.00 0.00 92 1016.0
20260507204007 63 26 8.0 17.0 0.00 0.00 0.00 92 1015.9
20260507203005 63 28 10.0 18.0 0.00 0.00 0.00 92 1015.9
20260507202006 63 13 6.0 10.0 0.00 0.00 0.00 93 1015.9
20260507201505 63 36 7.0 10.0 0.00 0.00 0.00 93 1015.8
20260507201005 63 45 7.0 14.0 0.00 0.00 0.00 93 1015.7
20260507200005 63 73 3.0 12.0 0.00 0.00 0.00 93 1015.8
20260507195505 63 24 7.0 14.0 0.00 0.00 0.00 94 1016.0
20260507195006 63 12 6.0 13.0 0.00 0.00 0.00 94 1016.1
20260507194505 63 44 5.0 12.0 0.00 0.00 0.00 94 1015.9
20260507192505 63 33 7.0 15.0 0.00 0.00 0.00 94 1015.8
20260507192007 63 43 6.0 14.0 0.00 0.00 0.00 94 1015.7
20260507191005 63 33 6.0 21.0 0.00 0.00 0.00 94 1015.9
20260507190506 63 30 6.0 16.0 0.00 0.00 0.00 93 1016.0
20260507190006 63 54 7.0 16.0 0.00 0.00 0.00 93 1015.9
20260507185006 63 15 7.0 14.0 0.00 0.00 0.00 93 1015.9
20260507184504 63 51 6.0 16.0 0.00 0.00 0.00 93 1015.9
20260507184004 63 40 5.0 12.0 0.00 0.00 0.00 93 1015.8
20260507183504 63 33 6.0 15.0 0.00 0.00 0.00 93 1016.0
20260507182505 63 26 7.0 15.0 0.00 0.00 0.00 93 1016.1
20260507181005 63 35 7.0 14.0 0.00 0.00 0.00 94 1016.1
20260507174506 63 39 7.0 13.0 0.00 0.00 0.00 94 1016.2
20260507170504 63 46 10.0 17.0 0.00 0.00 0.00 93 1016.2
20260507170008 63 23 10.0 20.0 0.00 0.00 0.00 93 1016.5
20260507165506 63 13 9.0 16.0 0.00 0.00 0.00 93 1016.3
20260507165007 63 36 9.0 17.0 0.00 0.00 0.00 93 1016.3
20260507164508 63 44 9.0 21.0 0.00 0.00 0.00 93 1016.5
20260507163506 63 28 7.0 21.0 0.00 0.00 0.00 93 1016.6
20260507163009 63 27 10.0 20.0 0.00 0.00 0.00 93 1016.7
20260507162506 63 25 10.0 16.0 0.00 0.00 0.00 93 1016.8
20260507162007 63 26 10.0 18.0 0.00 0.00 0.00 94 1016.7
20260507154008 63 85 3.0 9.0 0.00 0.00 0.00 94 1017.0
20260507153506 63 28 7.0 16.0 0.00 0.00 0.00 94 1017.3
20260507152507 63 47 2.0 16.0 0.00 0.00 0.00 94 1017.1
20260507152007 63 30 6.0 15.0 0.00 0.00 0.00 94 1017.2
20260507151007 63 67 6.0 13.0 0.00 0.00 0.00 93 1017.2
20260507150507 63 42 6.0 15.0 0.00 0.00 0.00 93 1017.3
20260507150007 63 17 8.0 15.0 0.00 0.00 0.00 93 1017.6
20260507145508 63 34 8.0 13.0 0.00 0.00 0.00 93 1017.5
20260507143508 63 16 13.0 23.0 0.00 0.01 0.00 94 1017.9
20260507141508 63 17 7.0 16.0 0.00 0.01 0.00 94 1018.2
20260507141007 63 11 5.0 15.0 0.00 0.01 0.00 94 1018.4
20260507140506 63 29 9.0 17.0 0.00 0.01 0.00 94 1018.4
20260507140009 63 15 7.0 14.0 0.00 0.01 0.00 93 1018.5
20260507135506 63 22 8.0 17.0 0.00 0.01 0.00 94 1018.5
20260507135006 63 23 10.0 18.0 0.00 0.01 0.00 93 1018.5
20260507134508 63 24 7.0 17.0 0.00 0.01 0.00 93 1018.6
20260507133008 63 17 12.0 21.0 0.00 0.01 0.00 94 1018.8
20260507131006 63 21 10.0 18.0 0.00 0.01 0.00 94 1018.9
20260507130506 63 19 10.0 17.0 0.00 0.01 0.00 94 1018.8
20260507125506 63 48 7.0 13.0 0.00 0.01 0.00 94 1019.1
20260507125007 63 16 5.0 14.0 0.00 0.01 0.00 94 1019.0
20260507123007 63 19 6.0 17.0 0.00 0.01 0.00 94 1019.0
20260507122507 63 34 6.0 12.0 0.00 0.01 0.00 94 1019.1
20260507122008 63 26 4.0 13.0 0.00 0.01 0.00 94 1019.2
20260507121508 63 33 7.0 15.0 0.00 0.01 0.00 94 1019.3
20260507121006 63 29 6.0 15.0 0.00 0.02 0.00 94 1019.2
20260507120008 63 40 6.0 15.0 0.00 0.02 0.00 94 1019.4
20260507115506 63 9 6.0 13.0 0.00 0.02 0.02 94 1019.4
20260507115006 63 30 5.0 12.0 0.00 0.02 0.02 94 1019.4
20260507114508 63 29 5.0 12.0 0.00 0.03 0.02 94 1019.5
20260507113506 63 11 6.0 15.0 0.00 0.03 0.02 94 1019.4
20260507112006 63 27 7.0 12.0 0.00 0.03 0.02 93 1019.7
20260507111509 63 38 6.0 13.0 0.00 0.03 0.02 93 1019.5
20260507110007 63 16 7.0 13.0 0.00 0.03 0.02 93 1019.9
20260507105006 63 49 7.0 14.0 0.00 0.03 0.02 93 1020.0
20260507103508 64 31 8.0 14.0 0.00 0.03 0.02 92 1020.3
20260507103006 64 26 7.0 14.0 0.00 0.03 0.02 92 1020.0
20260507101008 64 14 7.0 16.0 0.00 0.03 0.02 92 1020.2
20260507095507 64 12 11.0 16.0 0.00 0.03 0.02 91 1020.3
20260507094506 64 14 12.0 21.0 0.00 0.03 0.02 91 1020.1
20260507092507 64 7 8.0 15.0 0.00 0.03 0.02 91 1020.1
20260507092006 64 15 10.0 18.0 0.00 0.03 0.02 91 1020.1
20260507091506 64 15 11.0 15.0 0.00 0.03 0.02 91 1020.0
20260507090006 64 1 5.0 14.0 0.00 0.03 0.02 92 1019.7
20260507085505 64 37 7.0 13.0 0.00 0.03 0.02 92 1019.6
20260507084506 64 12 4.0 15.0 0.00 0.03 0.02 92 1019.5
20260507083507 63 48 6.0 15.0 0.00 0.03 0.02 92 1019.4
20260507082506 63 63 4.0 13.0 0.00 0.03 0.02 92 1019.2
20260507080008 64 40 5.0 13.0 0.00 0.03 0.02 92 1019.8
20260507075505 63 43 6.0 12.0 0.00 0.03 0.02 91 1020.1
20260507075006 63 50 5.0 12.0 0.00 0.03 0.02 91 1019.9
20260507074506 64 36 5.0 12.0 0.00 0.03 0.02 91 1020.0
20260507074008 64 65 3.0 12.0 0.00 0.03 0.02 91 1019.7
20260507073506 63 32 6.0 16.0 0.00 0.03 0.02 91 1019.9
20260507073006 63 58 7.0 16.0 0.00 0.03 0.02 91 1020.0
20260507072006 64 33 6.0 15.0 0.00 0.03 0.02 91 1020.0
20260507071007 64 43 9.0 13.0 0.00 0.03 0.02 91 1020.1
20260507070507 64 22 5.0 13.0 0.00 0.03 0.02 90 1020.0
20260507070010 64 57 3.0 10.0 0.00 0.03 0.02 90 1020.1
20260507065505 64 48 6.0 14.0 0.00 0.03 0.02 90 1020.3
20260507064505 64 31 6.0 14.0 0.00 0.03 0.02 89 1020.1
20260507064007 64 69 6.0 15.0 0.00 0.03 0.02 89 1020.4
20260507063006 64 52 5.0 12.0 0.00 0.03 0.02 88 1020.5
20260507061506 64 56 6.0 13.0 0.00 0.03 0.02 87 1020.5
20260507061006 64 40 4.0 12.0 0.00 0.03 0.02 87 1020.4
20260507060005 64 46 5.0 13.0 0.00 0.03 0.02 87 1020.6
20260507055509 64 58 5.0 14.0 0.00 0.03 0.02 87 1020.6
20260507055006 64 31 7.0 14.0 0.00 0.03 0.02 87 1020.6
20260507053506 64 53 7.0 14.0 0.00 0.03 0.02 87 1020.5
20260507051505 64 41 5.0 10.0 0.00 0.03 0.02 86 1020.6
20260507051007 64 23 6.0 12.0 0.00 0.03 0.02 86 1020.5
20260507050006 64 31 5.0 13.0 0.00 0.03 0.02 84 1020.6
20260507045505 64 62 5.0 12.0 0.00 0.03 0.02 84 1020.7
20260507044006 65 19 7.0 15.0 0.00 0.03 0.02 83 1020.7
20260507043007 66 24 14.0 21.0 0.00 0.03 0.02 82 1020.6
20260507042005 66 47 10.0 18.0 0.00 0.03 0.02 81 1020.8
20260507040006 67 27 12.0 24.0 0.00 0.03 0.02 79 1020.9
20260507034507 67 10 6.0 13.0 0.00 0.03 0.02 78 1020.9
20260507034006 68 28 7.0 16.0 0.00 0.03 0.02 78 1020.8
20260507032006 68 55 11.0 18.0 0.00 0.03 0.02 76 1020.9
20260507031506 69 28 8.0 18.0 0.00 0.03 0.02 76 1020.9
20260507031006 69 24 9.0 15.0 0.00 0.03 0.02 76 1020.9
20260507025507 69 22 12.0 22.0 0.00 0.03 0.02 75 1020.9
20260507025005 69 18 7.0 16.0 0.00 0.03 0.02 74 1021.0
20260507023506 70 39 9.0 18.0 0.00 0.03 0.02 73 1021.4
20260507023006 70 19 10.0 21.0 0.00 0.03 0.02 73 1021.4
20260507021506 70 16 11.0 18.0 0.00 0.03 0.02 74 1021.5
20260507021005 70 10 9.0 16.0 0.00 0.03 0.02 75 1021.5
20260507020506 70 19 5.0 16.0 0.00 0.03 0.02 76 1021.5
20260507020005 70 40 7.0 18.0 0.00 0.03 0.02 75 1021.5
20260507015007 70 23 16.0 25.0 0.00 0.03 0.02 74 1021.6
20260507014007 70 21 8.0 18.0 0.00 0.03 0.02 76 1021.6
20260507012505 70 16 13.0 23.0 0.00 0.03 0.02 75 1021.7
20260507012005 70 11 17.0 26.0 0.00 0.03 0.02 74 1021.8
20260507011005 70 25 10.0 22.0 0.00 0.03 0.02 76 1021.8
20260507010505 70 15 14.0 25.0 0.00 0.03 0.02 75 1021.9
20260507010005 69 13 18.0 25.0 0.00 0.03 0.02 76 1021.9
20260507005507 69 25 10.0 23.0 0.00 0.03 0.02 78 1022.1
20260507004505 68 53 9.0 14.0 0.00 0.03 0.02 83 1022.1
20260507003007 70 15 16.0 26.0 0.00 0.03 0.02 76 1022.2
20260507002505 70 30 12.0 23.0 0.00 0.03 0.02 77 1022.4
20260507002005 70 342 5.0 16.0 0.00 0.03 0.02 78 1022.4
20260507001004 70 17 12.0 24.0 0.00 0.03 0.02 79 1022.5
20260507000505 70 18 8.0 21.0 0.00 0.03 0.02 78 1022.3
20260507000005 69 24 8.0 14.0 0.00 0.03 0.02 79 1022.4
20260506234005 70 25 9.0 15.0 0.00 0.03 0.02 78 1022.7
20260506233007 69 22 6.0 17.0 0.00 0.03 0.02 79 1022.6
20260506232005 69 14 12.0 20.0 0.00 0.03 0.02 77 1022.7
20260506231505 69 10 14.0 23.0 0.00 0.03 0.02 77 1022.8
20260506225505 69 23 7.0 15.0 0.00 0.03 0.02 80 1022.9
20260506225004 68 50 7.0 15.0 0.00 0.03 0.02 81 1022.8
20260506224005 68 48 5.0 16.0 0.00 0.03 0.02 79 1023.0
20260506223505 68 23 4.0 13.0 0.00 0.03 0.02 80 1022.8
20260506223005 68 59 6.0 13.0 0.00 0.03 0.02 80 1023.0